Find Starlink 31928

NORAD ID: 59897 Int'l Des: 2024-100 Owner: SPXS Country: US Constellation: starlink operational
LEOCIRCULAR

Current View

Loading 3D Globe...

About Starlink 31928

Starlink 31928 (NORAD 59897) is a starlink constellation satellite (v2 mini) launched May 28, 2024 by SPXS of US. It operates in LEO, CIRCULAR orbit with a mass of 730.00 kg.

Upcoming Passes

Passes for default location (London). Set your location on the main map for personalized predictions.

Altitude History

Loading altitude history...

Two-Line Element Set

1 59897U 24100N 26237.32183950 -.00000924 00000-0 -24062-4 0 9991
2 59897 43.0035 253.3434 0001126 250.3844 109.6887 15.27568776126849
Epoch: Aug 25, 2026 • Age: 6 hours

Current Status

Altitude 489.5 km
Apogee / Perigee N/A
Velocity 7.62 km/s
Sub-Earth Point -26.65°S, 38.38°E
Launch Date May 28, 2024
Age 2.2 years
Type internet

Technical Details

Classification Payload
Mass 730.00 kg
Dry Mass 700.00 kg
Total Mass 730.00 kg
Length 0.30 m
Diameter 4.10 m
Span 29.00 m
Shape Box + pan
Manufacturer SPXS
Bus Type Starlink V2M
Phase Status In Orbit
Owner/State SPXS/US

Most Searched